Location: Hornberg
(48.2107°N, 8.2327°E)
Time: 21:30:06
(UTC+00:00)

Daily predictions for brighter satellites

Satellite Brightness Start Highest point End
(mag) Time Altitude Azimuth Time Altitude Azimuth Time Altitude Azimuth
BREEZE-M DEB (TANK) 3.3 20:04:08 10° WSW 20:07:37 71° SSE 20:19:27 10° ENE
Cosmos 1862 Rocket 3.8 20:04:12 10° S 20:08:28 52° E 20:12:49 10° NNE
Okean 1-7 4.1 20:07:32 10° SSE 20:11:13 28° E 20:14:54 10° NNE
GENESIS II 4.2 20:07:56 10° SSW 20:11:28 48° ESE 20:14:58 10° NE
SL-16 R/B 3.8 20:06:54 10° NW 20:11:48 30° WSW 20:16:39 10° SSW
Cosmos 1315 Rocket 3.7 20:10:24 10° SSE 20:13:55 31° E 20:17:27 10° NNE
COSMOS 2455 4.0 20:10:31 10° SSE 20:15:09 24° ESE 20:19:48 10° NE
Cosmos 1242 Rocket 4.0 20:14:09 10° ESE 20:15:32 13° E 20:16:57 10° ENE
Cosmos 1346 Rocket 2.8 20:11:41 10° NNW 20:15:33 80° WSW 20:19:22 10° S
Meteor 1-21 4.3 20:11:14 10° S 20:16:59 69° E 20:22:47 10° NNE
SeaSat 1 3.0 20:13:44 10° SE 20:18:27 48° NE 20:23:11 10° NNW
DNEPR-1 R/B 4.5 20:12:01 10° NW 20:18:41 74° SW 20:24:00 10° SSE
Ariane Rocket 3.2 20:21:00 10° SSE 20:25:59 60° ENE 20:31:01 10° N
IRS-1C Rocket 4.3 20:21:27 10° SSE 20:26:42 78° WSW 20:32:00 10° NNW
Cosmos 839 Rocket 4.2 20:20:01 10° NW 20:26:54 79° WSW 20:33:01 10° SSE
Cosmos 1707 Rocket 3.7 20:23:26 10° S 20:27:53 85° W 20:32:20 10° N
Okean 3 3.4 20:24:12 10° S 20:28:18 67° E 20:32:29 10° NNE
Cosmos 2333 Rocket 3.1 20:23:51 10° NW 20:29:22 48° WSW 20:34:51 10° S
IRS-1A Rocket 4.4 20:24:08 10° S 20:29:38 78° WSW 20:35:13 10° NNW
SL-14 R/B 3.8 20:25:58 10° SSW 20:29:42 59° WNW 20:33:30 10° N
SL-4 R/B 1.9 20:27:48 10° WNW 20:31:37 84° SSW 20:35:42 10° ESE
Cosmos 2237 Rocket 3.6 20:27:19 10° NNW 20:32:12 28° NE 20:37:01 10° ESE
Cosmos 1655 Rocket 4.3 20:28:26 10° SSW 20:34:50 77° W 20:41:15 10° N
CZ-4C R/B 4.0 20:30:57 10° N 20:35:03 62° WNW 20:39:04 10° SSW
BlueWalker 3 1.8 20:32:20 10° WSW 20:36:04 88° SSE 20:39:50 10° ENE
Cosmos 968 Rocket 4.0 20:31:36 10° SW 20:36:44 64° WNW 20:41:56 10° NNE
Okean 2 3.6 20:34:42 10° S 20:38:35 50° E 20:42:30 10° NNE
Cosmos 1733 Rocket 3.8 20:38:08 10° NNW 20:42:27 53° W 20:46:45 10° S
Cosmos 2322 3.7 20:39:46 10° NNW 20:45:29 84° ENE 20:50:38 13° SSE
Resurs 01 Rocket 4.4 20:44:13 10° WSW 20:46:09 13° W 20:48:06 10° WNW
Meteor 1-16 Rocket 4.5 20:42:33 10° NNW 20:48:31 81° W 20:54:22 10° S
USA 234 3.6 20:43:11 10° ENE 20:49:17 40° SE 20:55:22 10° SSW
Cosmos 2322 Rocket 4.1 20:45:10 10° NW 20:49:40 24° WSW 20:54:08 10° SSW
Meteor 2-20 Rocket 4.5 20:48:12 10° N 20:54:25 89° W 21:00:17 10° S
Cosmos 2297 Rocket 3.2 20:53:48 13° SSE 20:57:43 27° ESE 21:02:21 10° NE
EXPRESS MD2 2.4 20:55:34 10° WNW 20:58:12 61° N 21:00:19 10° E
Cosmos 1908 Rocket 3.5 20:59:05 10° N 21:03:26 86° ENE 21:07:02 15° S
MOS 1 Rocket 3.9 20:58:49 10° S 21:04:07 65° W 21:09:15 10° NNW
NOSS 8 (F) 4.4 21:02:13 10° SW 21:06:15 75° SE 21:09:25 10° NE
Cosmos 2219 Rocket 3.1 21:01:04 10° NW 21:06:24 43° WSW 21:11:42 10° S
Cosmos 1782 Rocket 3.9 21:02:58 10° N 21:07:12 50° ENE 21:10:15 18° SSE
ERS-1 Rocket 4.0 21:04:19 10° S 21:09:05 42° W 21:13:51 10° NNW
USA 281 4.2 21:04:09 10° ESE 21:10:06 37° NE 21:16:02 10° NNW
Cosmos 371 Rocket 3.9 21:06:32 14° SSE 21:10:09 38° ESE 21:14:37 10° NE
Terra 2.7 21:07:55 10° S 21:12:23 43° W 21:16:55 10° NNW
Cosmos 1570 Rocket 4.2 21:07:20 10° NNW 21:12:40 70° WSW 21:17:02 15° S
Cosmos 773 Rocket 4.5 21:08:08 10° NNW 21:13:10 50° ENE 21:17:04 17° SE
Cosmos 1300 Rocket 4.0 21:10:04 10° N 21:14:16 49° ENE 21:17:09 19° SE
MetOp-A 4.1 21:10:24 16° SSE 21:14:38 77° ENE 21:19:48 10° NNW
Meteor 1-4 Rocket 4.4 21:18:20 10° SW 21:20:49 23° WNW 21:23:20 10° NNW
Cosmos 1703 4.4 21:21:01 19° SE 21:22:29 25° E 21:25:32 10° NE
ARIANE 5 R/B 3.6 21:19:54 16° SE 21:22:45 34° ENE 21:26:42 10° N
Spot 1 4.3 21:18:33 10° NNE 21:23:17 82° ESE 21:28:03 11° SSW
GP-B 3.3 21:20:10 10° N 21:24:32 57° E 21:27:24 20° SSE
Cosmos 2084 Rocket 3.6 21:25:54 10° SSW 21:30:03 48° SE 21:34:04 10° NE
NOSS 0 Rocket 4.0 21:24:33 10° NNW 21:30:49 81° WSW 21:35:24 19° SSE
Cosmos 1953 3.5 21:29:25 10° NNW 21:32:55 35° W 21:36:01 12° SSW
COSMOS 2428 3.2 21:27:27 10° NW 21:33:00 55° WSW 21:37:11 18° S
Cosmos 1455 3.3 21:31:23 10° NNW 21:34:35 34° W 21:37:14 13° SSW
CZ-4C R/B 1.8 21:30:10 10° SSW 21:34:37 74° SE 21:40:15 10° NE
SJ 16-02 3.8 21:31:32 10° WSW 21:34:58 23° NW 21:38:26 10° N
BREEZE-M DEB (TANK) 4.1 21:18:19 10° W 21:36:17 82° N 21:40:37 10° E
Cosmos 1386 Rocket 4.5 21:32:18 12° S 21:38:08 89° WNW 21:44:18 10° N
Cosmos 1745 Rocket 4.0 21:34:05 14° S 21:39:34 81° E 21:45:58 10° N
BREEZE-M DEB (TANK) 3.2 21:39:51 33° SSE 21:39:52 33° SSE 21:42:55 10° E
Cosmos 1777 Rocket 4.5 21:36:59 20° SSE 21:40:12 44° ESE 21:45:12 10° NE
Cosmos 304 Rocket 3.8 21:38:33 18° S 21:42:00 62° ESE 21:46:44 10° NNE
Nadezhda 1 Rocket 4.1 21:37:32 10° NNW 21:43:48 78° W 21:48:28 18° S
Cosmos 1703 Rocket 4.4 21:41:51 10° SSW 21:46:09 48° WNW 21:50:28 10° N
Cosmos 1242 Rocket 4.0 21:45:00 10° SW 21:47:15 23° WNW 21:49:32 10° NNW
Cosmos 1503 Rocket 4.1 21:45:02 18° S 21:48:53 62° ESE 21:54:06 10° NNE
Cosmos 1825 3.9 21:49:46 15° E 21:50:21 15° E 21:52:23 10° NE
Cosmos 2098 Rocket 4.2 21:49:13 10° N 21:55:42 60° ENE 21:59:29 23° SSE
SeaSat 1 3.8 21:52:49 15° SSW 21:56:03 29° WSW 22:00:20 10° NW
Okean 2 Rocket 4.2 21:53:08 10° N 21:57:15 34° ENE 21:59:32 21° ESE
BREEZE-M R/B 4.4 21:57:09 21° SE 21:57:54 22° ESE 22:03:38 10° ENE
Landsat 5 4.4 21:54:07 10° N 21:58:03 45° WNW 22:02:06 10° SW
H-2A R/B 3.2 21:56:48 23° SE 21:59:01 42° ENE 22:02:58 10° N
MINOTAUR 4 R/B 4.1 21:57:40 10° NNE 22:00:24 37° E 22:00:41 36° ESE
COSMOS 2455 3.1 21:54:30 10° SW 22:00:31 72° NW 22:06:35 10° NNE
Cosmos 1892 3.9 22:01:06 22° ESE 22:01:47 23° E 22:04:37 10° NE
CZ-2C R/B 3.6 21:58:12 10° NNE 22:02:38 73° ESE 22:05:08 26° S
Cosmos 1408 2.7 22:02:06 25° SW 22:03:30 49° WNW 22:06:26 10° N
Cosmos 332 Rocket 4.2 22:03:49 27° SSE 22:06:06 47° ESE 22:10:48 10° NNE
Cosmos 1174 4.0 22:02:10 10° NW 22:06:59 69° WSW 22:08:42 33° SSE
ALOS 2 3.7 22:04:51 20° ESE 22:07:13 34° ENE 22:11:12 10° N
Cosmos 405 Rocket 2.7 22:04:42 10° N 22:08:28 66° ENE 22:09:55 35° SSE
SL-4 R/B 3.4 22:06:55 10° W 22:10:02 22° SW 22:10:36 21° SSW
Cosmos 2181 Rocket 4.2 22:04:33 10° N 22:10:39 60° ENE 22:14:19 24° SSE
SL-16 R/B 2.9 22:08:51 10° NNW 22:14:23 48° NE 22:18:25 18° ESE
BlueWalker 3 3.3 22:10:58 10° WNW 22:14:31 39° N 22:18:04 10° ENE
Meteor 2-5 Rocket 3.8 22:11:13 23° S 22:15:01 79° E 22:20:49 10° NNE
CENTAUR R/B 2.7 22:11:56 23° S 22:15:15 50° ESE 22:21:52 10° NE
Cosmos 2237 Rocket 2.4 22:11:04 10° NNW 22:16:39 61° WSW 22:19:45 26° S
Spot 4 4.0 22:17:54 28° SE 22:20:23 66° ENE 22:25:11 10° N
Cosmos 2227 Rocket 2.2 22:18:48 25° S 22:22:09 62° ESE 22:27:45 10° NNE
Cosmos 2221 Rocket 4.0 22:25:50 32° SSE 22:27:30 49° E 22:31:46 10° NNE
Cosmos 1980 4.3 22:25:32 10° NW 22:30:54 45° WSW 22:33:48 25° SSW
H-2A R/B 3.8 22:29:46 10° NE 22:32:28 17° E 22:33:24 16° ESE
USA 234 3.4 22:26:05 10° NE 22:32:38 77° NNW 22:39:08 10° WSW
Sich 1 Rocket 3.5 22:28:47 10° N 22:33:11 75° E 22:34:57 35° SSE
Cosmos 1354 Rocket 4.1 22:31:07 19° SSW 22:34:58 76° WNW 22:40:17 10° NNE
Okean 1 Rocket 3.4 22:34:52 10° N 22:39:11 56° ENE 22:40:58 32° SE
Cosmos 2297 Rocket 2.8 22:35:52 10° SW 22:41:23 56° WNW 22:46:59 10° NNE
Cosmos 1461 3.8 22:43:12 27° ESE 22:43:12 27° ESE 22:46:31 10° ENE
Cosmos 990 Rocket 4.0 22:45:53 32° S 22:48:13 66° ESE 22:53:19 10° NNE
Nadezhda 3 Rocket 4.4 22:42:14 10° N 22:48:23 55° ENE 22:51:56 25° SE
USA 281 3.5 22:50:46 27° S 22:54:22 56° WSW 23:00:51 10° NNW
Cosmos 2219 3.3 22:51:46 31° S 22:54:26 62° ESE 22:59:59 10° NNE
Meteor 1-24 Rocket 4.4 22:52:47 18° SW 22:56:49 50° WNW 23:02:12 10° N
ARIANE 5 R/B 4.0 22:57:21 20° SW 22:59:10 27° W 23:02:55 10° NW
Cosmos 1975 Rocket 4.4 22:59:41 22° ESE 23:01:07 27° E 23:04:51 10° NNE
Cosmos 1025 Rocket 3.4 23:00:15 36° SE 23:01:36 51° E 23:05:46 10° NNE
Cosmos 2263 Rocket 2.4 23:01:07 32° SSE 23:03:26 52° ESE 23:08:49 10° NE
Cosmos 2184 Rocket 4.0 22:59:56 29° S 23:03:28 82° E 23:09:53 10° N
Orbus 7S? 4.5 23:01:13 10° NW 23:03:41 29° NNE 23:06:23 10° E
Cosmos 1455 Rocket 3.6 23:05:06 10° N 23:09:27 50° ENE 23:11:17 30° SE
Cosmos 1378 Rocket 4.3 23:10:39 25° SW 23:12:48 45° WNW 23:17:04 10° N
Cosmos 1674 Rocket 4.2 23:14:09 28° SW 23:16:07 48° WNW 23:20:20 10° N
Cosmos 292 Rocket 3.7 23:17:32 37° S 23:19:26 75° ESE 23:24:16 10° NNE
NOSS 3-2 (A) 3.1 23:18:38 25° SW 23:21:48 85° SE 23:28:04 10° NE
Cosmos 2154 Rocket 4.0 23:18:32 29° S 23:21:56 89° WNW 23:28:18 10° N
CZ-4C R/B 4.1 23:19:16 10° W 23:23:39 30° NNW 23:29:02 10° NE
Cosmos 1825 3.0 23:23:13 29° WSW 23:24:13 35° WNW 23:27:25 10° N
PSLV R/B 3.4 23:25:09 10° NNE 23:29:21 83° WNW 23:30:49 40° SSW
NOSS 3-2 (C) 3.5 23:30:22 33° S 23:32:24 50° ESE 23:38:17 10° NE
Cosmos 1818 3.5 23:28:22 10° NW 23:33:51 70° WSW 23:36:27 31° SSE
H-2A R/B 4.2 23:32:47 19° WSW 23:34:05 21° W 23:37:21 10° NW
Cosmos 1892 4.3 23:34:58 19° WSW 23:36:18 24° WNW 23:39:16 10° NNW
Meteor 1-21 Rocket 4.2 23:34:06 32° S 23:36:55 89° E 23:42:35 10° NNE
ALOS 2 3.9 23:42:15 24° SW 23:43:35 28° W 23:47:23 10° NW
In-Cosmos 22 Rocket 4.3 23:41:13 31° S 23:44:04 72° E 23:49:54 10° NNE
Cosmos 1869 3.7 23:44:20 10° N 23:47:57 50° ENE 23:49:12 34° SE
Aureole 1 Rocket 3.5 23:48:39 30° SW 23:50:30 57° WNW 23:55:29 10° NNE
Cosmos 1937 Rocket 3.5 23:48:31 34° S 23:50:53 78° ESE 23:56:07 10° NNE
BlueWalker 3 3.0 23:49:34 10° WNW 23:53:11 44° NNE 23:56:48 10° E
